Hourly Weather Pinang

Today, 3 July, Friday

Time Temperature Precipitation Wind Pressure Humidity
00:00 +27°C° 0 mm 1 mps 754 mmHg 93%
01:00 +27°C° 0 mm 1 mps 754 mmHg 94%
02:00 +27°C° 0 mm 1 mps 754 mmHg 94%
03:00 +27°C° 0 mm 1 mps 753 mmHg 95%
04:00 +26°C° 0 mm 1 mps 753 mmHg 95%
05:00 +27°C° 0 mm 1 mps 753 mmHg 94%
06:00 +27°C° 0 mm 1 mps 754 mmHg 93%
07:00 +27°C° 0 mm 1 mps 754 mmHg 91%
08:00 +29°C° 0 mm 1 mps 755 mmHg 83%
09:00 +31°C° 0 mm 1 mps 755 mmHg 74%
10:00 +32°C° 0 mm 1 mps 755 mmHg 66%
11:00 +33°C° 0 mm 1 mps 754 mmHg 64%
12:00 +34°C° 0 mm 1 mps 754 mmHg 61%
13:00 +35°C° 0 mm 1 mps 754 mmHg 60%
14:00 +33°C° 1 mm 1 mps 753 mmHg 67%
15:00 +32°C° 1 mm 2 mps 753 mmHg 74%
16:00 +31°C° 1 mm 2 mps 752 mmHg 81%
17:00 +30°C° 0.8 mm 2 mps 753 mmHg 84%
18:00 +29°C° 0.8 mm 2 mps 753 mmHg 88%
19:00 +28°C° 0 mm 1 mps 754 mmHg 92%
20:00 +28°C° 0.3 mm 1 mps 754 mmHg 92%
21:00 +27°C° 0.3 mm 1 mps 755 mmHg 92%
22:00 +27°C° 0.3 mm 1 mps 755 mmHg 92%
23:00 +27°C° 0.2 mm 1 mps 755 mmHg 92%

Tomorrow, 4 July, Saturday

Time Temperature Precipitation Wind Pressure Humidity
00:00 +27°C° 0.2 mm 1 mps 755 mmHg 92%
01:00 +27°C° 0.2 mm 1 mps 754 mmHg 92%
02:00 +27°C° 0.2 mm 1 mps 754 mmHg 92%
03:00 +27°C° 0.2 mm 1 mps 754 mmHg 93%
04:00 +27°C° 0.2 mm 1 mps 753 mmHg 93%
05:00 +27°C° 0.2 mm 1 mps 754 mmHg 92%
06:00 +25°C° 0.2 mm 0 mps 754 mmHg 92%
07:00 +25°C° 0.2 mm 0 mps 754 mmHg 91%
08:00 +27°C° 0.9 mm 0 mps 755 mmHg 86%
09:00 +28°C° 0.9 mm 0 mps 755 mmHg 80%
10:00 +29°C° 0.9 mm 0 mps 755 mmHg 75%
11:00 +32°C° 0.6 mm 1 mps 754 mmHg 69%
12:00 +34°C° 0.6 mm 1 mps 754 mmHg 62%
13:00 +35°C° 0.6 mm 1 mps 754 mmHg 56%
14:00 +33°C° 1.5 mm 1 mps 753 mmHg 64%
15:00 +32°C° 1.5 mm 1 mps 753 mmHg 73%
16:00 +30°C° 1.5 mm 1 mps 752 mmHg 81%
17:00 +30°C° 0.4 mm 1 mps 753 mmHg 83%
18:00 +29°C° 0.4 mm 1 mps 753 mmHg 85%
19:00 +28°C° 0.4 mm 1 mps 754 mmHg 87%
20:00 +28°C° 0.1 mm 1 mps 754 mmHg 88%
21:00 +25°C° 0.1 mm 0 mps 754 mmHg 89%
22:00 +25°C° 0.1 mm 0 mps 755 mmHg 89%
23:00 +25°C° 0 mm 0 mps 755 mmHg 89%

Day after tomorrow, 5 July, Sunday

Time Temperature Precipitation Wind Pressure Humidity
00:00 +25°C° 0 mm 0 mps 755 mmHg 89%
01:00 +25°C° 0 mm 0 mps 754 mmHg 89%
02:00 +25°C° 0 mm 0 mps 754 mmHg 90%
03:00 +24°C° 0 mm 0 mps 754 mmHg 90%
04:00 +24°C° 0 mm 0 mps 753 mmHg 91%
05:00 +24°C° 0 mm 0 mps 754 mmHg 91%
06:00 +24°C° 0 mm 0 mps 754 mmHg 91%
07:00 +27°C° 0 mm 1 mps 754 mmHg 91%
08:00 +26°C° 0 mm 0 mps 754 mmHg 85%
09:00 +28°C° 0 mm 0 mps 754 mmHg 79%
10:00 +29°C° 0 mm 0 mps 754 mmHg 72%
11:00 +30°C° 0 mm 0 mps 754 mmHg 67%
12:00 +31°C° 0 mm 0 mps 753 mmHg 61%
13:00 +35°C° 0 mm 1 mps 753 mmHg 55%
14:00 +34°C° 0.1 mm 1 mps 752 mmHg 57%
15:00 +34°C° 0.1 mm 1 mps 752 mmHg 58%
16:00 +34°C° 0.1 mm 2 mps 751 mmHg 60%
17:00 +31°C° 0.4 mm 2 mps 752 mmHg 69%
18:00 +29°C° 0.4 mm 1 mps 752 mmHg 79%
19:00 +28°C° 0.4 mm 1 mps 752 mmHg 88%
20:00 +27°C° 0.1 mm 1 mps 753 mmHg 88%
21:00 +27°C° 0.1 mm 1 mps 753 mmHg 89%
22:00 +27°C° 0.1 mm 1 mps 754 mmHg 90%
23:00 +27°C° 0.1 mm 1 mps 754 mmHg 90%

6 July, Monday

Time Temperature Precipitation Wind Pressure Humidity
00:00 +26°C° 0.1 mm 1 mps 754 mmHg 91%
01:00 +26°C° 0.1 mm 1 mps 753 mmHg 91%
02:00 +26°C° 0 mm 1 mps 753 mmHg 92%
03:00 +26°C° 0 mm 1 mps 753 mmHg 93%
04:00 +26°C° 0 mm 1 mps 752 mmHg 93%
05:00 +26°C° 0 mm 1 mps 753 mmHg 93%
06:00 +26°C° 0 mm 1 mps 753 mmHg 92%
07:00 +26°C° 0 mm 1 mps 754 mmHg 92%
08:00 +29°C° 0 mm 1 mps 754 mmHg 82%
09:00 +29°C° 0 mm 0 mps 754 mmHg 72%
10:00 +31°C° 0 mm 0 mps 754 mmHg 62%
11:00 +33°C° 0.4 mm 1 mps 754 mmHg 65%
12:00 +33°C° 0.4 mm 1 mps 753 mmHg 67%
13:00 +32°C° 0.4 mm 1 mps 753 mmHg 70%
14:00 +32°C° 1.5 mm 1 mps 752 mmHg 74%
15:00 +31°C° 1.5 mm 1 mps 752 mmHg 78%
16:00 +31°C° 1.5 mm 1 mps 751 mmHg 81%
17:00 +30°C° 1.1 mm 1 mps 752 mmHg 85%
18:00 +29°C° 1.1 mm 1 mps 752 mmHg 88%
19:00 +27°C° 1.1 mm 1 mps 753 mmHg 92%
20:00 +27°C° 0.7 mm 1 mps 753 mmHg 92%
21:00 +27°C° 0.7 mm 1 mps 754 mmHg 92%
22:00 +27°C° 0.7 mm 1 mps 754 mmHg 93%
23:00 +27°C° 0.2 mm 1 mps 754 mmHg 93%

7 July, Tuesday

Time Temperature Precipitation Wind Pressure Humidity
00:00 +26°C° 0.2 mm 1 mps 754 mmHg 93%
01:00 +26°C° 0.2 mm 1 mps 754 mmHg 93%
02:00 +26°C° 0.2 mm 1 mps 753 mmHg 93%
03:00 +26°C° 0.2 mm 1 mps 753 mmHg 93%
04:00 +26°C° 0.2 mm 1 mps 753 mmHg 93%
05:00 +26°C° 0 mm 1 mps 753 mmHg 92%
06:00 +26°C° 0 mm 1 mps 754 mmHg 91%
07:00 +27°C° 0 mm 1 mps 754 mmHg 91%
08:00 +28°C° 0.6 mm 1 mps 754 mmHg 85%
09:00 +30°C° 0.6 mm 1 mps 755 mmHg 79%
10:00 +31°C° 0.6 mm 1 mps 755 mmHg 72%
11:00 +31°C° 0.9 mm 1 mps 754 mmHg 72%
12:00 +32°C° 0.9 mm 1 mps 754 mmHg 71%
13:00 +32°C° 0.9 mm 1 mps 754 mmHg 71%
14:00 +31°C° 1.7 mm 1 mps 753 mmHg 75%
15:00 +31°C° 1.7 mm 1 mps 753 mmHg 79%
16:00 +30°C° 1.7 mm 1 mps 753 mmHg 83%
17:00 +29°C° 1 mm 1 mps 753 mmHg 86%
18:00 +28°C° 1 mm 1 mps 753 mmHg 88%
19:00 +27°C° 1 mm 1 mps 754 mmHg 90%
20:00 +27°C° 0.5 mm 1 mps 754 mmHg 90%
21:00 +27°C° 0.5 mm 1 mps 755 mmHg 91%
22:00 +26°C° 0.5 mm 1 mps 756 mmHg 91%
23:00 +26°C° 0.2 mm 1 mps 755 mmHg 91%

8 July, Wednesday

Time Temperature Precipitation Wind Pressure Humidity
00:00 +26°C° 0.2 mm 1 mps 755 mmHg 91%
01:00 +26°C° 0.2 mm 1 mps 754 mmHg 91%
02:00 +26°C° 0.1 mm 1 mps 754 mmHg 92%
03:00 +26°C° 0.1 mm 1 mps 754 mmHg 93%
04:00 +26°C° 0.1 mm 1 mps 753 mmHg 94%
05:00 +26°C° 0 mm 1 mps 754 mmHg 94%
06:00 +26°C° 0 mm 1 mps 754 mmHg 94%
07:00 +26°C° 0 mm 1 mps 754 mmHg 94%
08:00 +27°C° 0 mm 1 mps 755 mmHg 89%
09:00 +28°C° 0 mm 2 mps 755 mmHg 85%
10:00 +29°C° 0 mm 2 mps 755 mmHg 80%
11:00 +29°C° 0 mm 2 mps 755 mmHg 79%
12:00 +29°C° 0 mm 2 mps 754 mmHg 77%
13:00 +30°C° 0 mm 2 mps 754 mmHg 75%
14:00 +30°C° 0 mm 2 mps 753 mmHg 71%
15:00 +31°C° 0 mm 2 mps 753 mmHg 68%
16:00 +31°C° 0 mm 2 mps 752 mmHg 65%
17:00 +30°C° 0.1 mm 1 mps 752 mmHg 70%
18:00 +29°C° 0.1 mm 1 mps 752 mmHg 76%
19:00 +28°C° 0.1 mm 1 mps 753 mmHg 81%
20:00 +27°C° 0.2 mm 1 mps 753 mmHg 82%
21:00 +27°C° 0.2 mm 1 mps 754 mmHg 84%
22:00 +27°C° 0.2 mm 1 mps 754 mmHg 85%
23:00 +26°C° 0.1 mm 1 mps 754 mmHg 86%
Show more